Year,Month,Day,Hour,Minute,Value (Times are PST for windspeed in km/hr)
2023,07,01,00,00,55.60
2023,07,01,00,01,56.40
2023,07,01,00,02,54.10
2023,07,01,00,03,56.50
2023,07,01,00,04,55.10
2023,07,01,00,05,56.30
2023,07,01,00,06,57.40
2023,07,01,00,07,62.40
2023,07,01,00,08,61.00
2023,07,01,00,09,57.00
2023,07,01,00,10,59.00
2023,07,01,00,11,62.70
2023,07,01,00,12,62.50
2023,07,01,00,13,64.20
2023,07,01,00,14,62.10
2023,07,01,00,15,67.50
2023,07,01,00,16,66.60
2023,07,01,00,17,62.70
2023,07,01,00,18,70.10
2023,07,01,00,19,71.50
2023,07,01,00,20,70.30
2023,07,01,00,21,70.40
2023,07,01,00,22,75.90
2023,07,01,00,23,72.10
2023,07,01,00,24,76.10
2023,07,01,00,25,77.10
2023,07,01,00,26,74.40
2023,07,01,00,27,73.00
2023,07,01,00,28,77.30
2023,07,01,00,29,80.40
2023,07,01,00,30,77.20
2023,07,01,00,31,76.50
2023,07,01,00,32,77.90
2023,07,01,00,33,73.50
2023,07,01,00,34,73.50
2023,07,01,00,35,71.80
2023,07,01,00,36,67.50
2023,07,01,00,37,70.80
2023,07,01,00,38,64.90
2023,07,01,00,39,61.80
2023,07,01,00,40,66.00
2023,07,01,00,41,63.80
2023,07,01,00,42,58.00
2023,07,01,00,43,62.80
2023,07,01,00,44,61.70
2023,07,01,00,45,61.40
2023,07,01,00,46,59.80
2023,07,01,00,47,56.60
2023,07,01,00,48,61.40
2023,07,01,00,49,58.60
2023,07,01,00,50,57.80
2023,07,01,00,51,58.60
2023,07,01,00,52,62.20
2023,07,01,00,53,56.90
2023,07,01,00,54,60.50
2023,07,01,00,55,57.00
2023,07,01,00,56,58.50
2023,07,01,00,57,57.60
2023,07,01,00,58,57.70
2023,07,01,00,59,54.90
2023,07,01,01,00,56.20
2023,07,01,01,01,54.20
2023,07,01,01,02,51.30
2023,07,01,01,03,53.30
2023,07,01,01,04,51.00
2023,07,01,01,05,51.00
2023,07,01,01,06,51.60
2023,07,01,01,07,53.40
2023,07,01,01,08,53.10
2023,07,01,01,09,50.40
2023,07,01,01,10,49.70
2023,07,01,01,11,49.70
2023,07,01,01,12,48.10
2023,07,01,01,13,46.30
2023,07,01,01,14,44.80
2023,07,01,01,15,46.50
2023,07,01,01,16,46.30
2023,07,01,01,17,48.20
2023,07,01,01,18,46.90
2023,07,01,01,19,45.90
2023,07,01,01,20,46.30
2023,07,01,01,21,49.30
2023,07,01,01,22,49.70
2023,07,01,01,23,49.40
2023,07,01,01,24,49.20
2023,07,01,01,25,49.00
2023,07,01,01,26,49.50
2023,07,01,01,27,50.40
2023,07,01,01,28,50.00
2023,07,01,01,29,49.40
2023,07,01,01,30,46.10
2023,07,01,01,31,48.50
2023,07,01,01,32,48.30
2023,07,01,01,33,48.30
2023,07,01,01,34,47.80
2023,07,01,01,35,44.90
2023,07,01,01,36,49.50
2023,07,01,01,37,49.50
2023,07,01,01,38,51.70
2023,07,01,01,39,53.50
2023,07,01,01,40,52.70
2023,07,01,01,41,58.80
2023,07,01,01,42,57.00
2023,07,01,01,43,57.10
2023,07,01,01,44,58.00
2023,07,01,01,45,59.50
2023,07,01,01,46,58.10
2023,07,01,01,47,57.60
2023,07,01,01,48,59.50
2023,07,01,01,49,61.60
2023,07,01,01,50,59.00
2023,07,01,01,51,61.30
2023,07,01,01,52,61.20
2023,07,01,01,53,61.50
2023,07,01,01,54,62.40
2023,07,01,01,55,63.00
2023,07,01,01,56,59.80
2023,07,01,01,57,58.50
2023,07,01,01,58,58.50
2023,07,01,01,59,57.90
2023,07,01,02,00,58.90
2023,07,01,02,01,57.90
2023,07,01,02,02,60.30
2023,07,01,02,03,60.20
2023,07,01,02,04,63.70
2023,07,01,02,05,62.80
2023,07,01,02,06,61.90
2023,07,01,02,07,60.50
2023,07,01,02,08,63.20
2023,07,01,02,09,64.80
2023,07,01,02,10,60.90
2023,07,01,02,11,61.80
2023,07,01,02,12,62.20
2023,07,01,02,13,59.80
2023,07,01,02,14,60.60
2023,07,01,02,15,57.90
2023,07,01,02,16,61.00
2023,07,01,02,17,56.00
2023,07,01,02,18,57.40
2023,07,01,02,19,56.00
2023,07,01,02,20,58.90
2023,07,01,02,21,61.20
2023,07,01,02,22,58.50
2023,07,01,02,23,56.90
2023,07,01,02,24,58.50
2023,07,01,02,25,57.00
2023,07,01,02,26,57.60
2023,07,01,02,27,58.20
2023,07,01,02,28,57.30
2023,07,01,02,29,56.50
2023,07,01,02,30,60.20
2023,07,01,02,31,57.10
2023,07,01,02,32,57.20
2023,07,01,02,33,58.70
2023,07,01,02,34,57.30
2023,07,01,02,35,57.90
2023,07,01,02,36,58.00
2023,07,01,02,37,58.00
2023,07,01,02,38,57.00
2023,07,01,02,39,56.00
2023,07,01,02,40,56.40
2023,07,01,02,41,55.60
2023,07,01,02,42,56.80
2023,07,01,02,43,58.00
2023,07,01,02,44,56.90
2023,07,01,02,45,56.00
2023,07,01,02,46,55.80
2023,07,01,02,47,56.20
2023,07,01,02,48,53.90
2023,07,01,02,49,54.90
2023,07,01,02,50,54.20
2023,07,01,02,51,54.40
2023,07,01,02,52,51.80
2023,07,01,02,53,55.60
2023,07,01,02,54,56.80
2023,07,01,02,55,57.40
2023,07,01,02,56,56.90
2023,07,01,02,57,54.90
2023,07,01,02,58,53.40
2023,07,01,02,59,57.30
2023,07,01,03,00,54.30
2023,07,01,03,01,53.70
2023,07,01,03,02,55.10
2023,07,01,03,03,53.70
2023,07,01,03,04,56.90
2023,07,01,03,05,59.30
2023,07,01,03,06,62.60
2023,07,01,03,07,60.10
2023,07,01,03,08,59.90
2023,07,01,03,09,56.70
2023,07,01,03,10,59.80
2023,07,01,03,11,58.30
2023,07,01,03,12,57.90
2023,07,01,03,13,57.60
2023,07,01,03,14,56.40
2023,07,01,03,15,55.40
2023,07,01,03,16,54.60
2023,07,01,03,17,54.00
2023,07,01,03,18,52.60
2023,07,01,03,19,53.00
2023,07,01,03,20,49.70
2023,07,01,03,21,49.90
2023,07,01,03,22,50.40
2023,07,01,03,23,50.70
2023,07,01,03,24,49.20
2023,07,01,03,25,51.00
2023,07,01,03,26,52.00
2023,07,01,03,27,47.70
2023,07,01,03,28,48.80
2023,07,01,03,29,46.90
2023,07,01,03,30,49.00
2023,07,01,03,31,49.80
2023,07,01,03,32,50.80
2023,07,01,03,33,51.50
2023,07,01,03,34,50.70
2023,07,01,03,35,50.70
2023,07,01,03,36,50.60
2023,07,01,03,37,51.00
2023,07,01,03,38,51.30
2023,07,01,03,39,51.00
2023,07,01,03,40,52.10
2023,07,01,03,41,52.20
2023,07,01,03,42,49.20
2023,07,01,03,43,47.90
2023,07,01,03,44,49.20
2023,07,01,03,45,50.40
2023,07,01,03,46,48.80
2023,07,01,03,47,50.70
2023,07,01,03,48,49.90
2023,07,01,03,49,49.40
2023,07,01,03,50,47.00
2023,07,01,03,51,47.00
2023,07,01,03,52,45.90
2023,07,01,03,53,48.20
2023,07,01,03,54,50.40
2023,07,01,03,55,52.70
2023,07,01,03,56,54.80
2023,07,01,03,57,51.90
2023,07,01,03,58,51.50
2023,07,01,03,59,51.50
2023,07,01,04,00,50.70
2023,07,01,04,01,51.50
2023,07,01,04,02,50.40
2023,07,01,04,03,50.40
2023,07,01,04,04,51.70
2023,07,01,04,05,49.80
2023,07,01,04,06,52.20
2023,07,01,04,07,49.70
2023,07,01,04,08,48.20
2023,07,01,04,09,50.20
2023,07,01,04,10,48.40
2023,07,01,04,11,50.10
2023,07,01,04,12,48.80
2023,07,01,04,13,51.30
2023,07,01,04,14,52.10
2023,07,01,04,15,52.60
2023,07,01,04,16,52.80
2023,07,01,04,17,52.90
2023,07,01,04,18,50.20
2023,07,01,04,19,49.00
2023,07,01,04,20,49.80
2023,07,01,04,21,51.60
2023,07,01,04,22,49.70
2023,07,01,04,23,50.20
2023,07,01,04,24,51.10
2023,07,01,04,25,50.50
2023,07,01,04,26,49.90
2023,07,01,04,27,49.90
2023,07,01,04,28,49.90
2023,07,01,04,29,49.90
2023,07,01,04,30,49.70
2023,07,01,04,31,49.70
2023,07,01,04,32,50.20
2023,07,01,04,33,52.40
2023,07,01,04,34,53.00
2023,07,01,04,35,51.10
2023,07,01,04,36,50.70
2023,07,01,04,37,48.10
2023,07,01,04,38,48.90
2023,07,01,04,39,49.70
2023,07,01,04,40,49.70
2023,07,01,04,41,50.20
2023,07,01,04,42,49.40
2023,07,01,04,43,46.30
2023,07,01,04,44,48.00
2023,07,01,04,45,48.00
2023,07,01,04,46,46.00
2023,07,01,04,47,45.90
2023,07,01,04,48,45.40
2023,07,01,04,49,46.10
2023,07,01,04,50,44.20
2023,07,01,04,51,48.80
2023,07,01,04,52,48.40
2023,07,01,04,53,50.50
2023,07,01,04,54,50.20
2023,07,01,04,55,48.90
2023,07,01,04,56,48.40
2023,07,01,04,57,49.80
2023,07,01,04,58,47.20
2023,07,01,04,59,46.30
2023,07,01,05,00,44.80
2023,07,01,05,01,44.90
2023,07,01,05,02,46.10
2023,07,01,05,03,46.60
2023,07,01,05,04,45.30
2023,07,01,05,05,46.70
2023,07,01,05,06,48.70
2023,07,01,05,07,46.90
2023,07,01,05,08,45.20
2023,07,01,05,09,46.60
2023,07,01,05,10,47.40
2023,07,01,05,11,45.70
2023,07,01,05,12,44.90
2023,07,01,05,13,46.80
2023,07,01,05,14,46.40
2023,07,01,05,15,45.10
2023,07,01,05,16,44.40
2023,07,01,05,17,46.10
2023,07,01,05,18,45.90
2023,07,01,05,19,45.70
2023,07,01,05,20,45.90
2023,07,01,05,21,43.50
2023,07,01,05,22,42.20
2023,07,01,05,23,43.90
2023,07,01,05,24,43.50
2023,07,01,05,25,43.70
2023,07,01,05,26,44.50
2023,07,01,05,27,44.00
2023,07,01,05,28,44.80
2023,07,01,05,29,42.70
2023,07,01,05,30,43.50
2023,07,01,05,31,44.70
2023,07,01,05,32,44.80
2023,07,01,05,33,44.80
2023,07,01,05,34,43.60
2023,07,01,05,35,42.30
2023,07,01,05,36,44.20
2023,07,01,05,37,46.00
2023,07,01,05,38,43.70
2023,07,01,05,39,42.20
2023,07,01,05,40,44.20
2023,07,01,05,41,43.50
2023,07,01,05,42,45.50
2023,07,01,05,43,44.30
2023,07,01,05,44,43.70
2023,07,01,05,45,41.90
2023,07,01,05,46,45.10
2023,07,01,05,47,45.20
2023,07,01,05,48,45.80
2023,07,01,05,49,43.90
2023,07,01,05,50,45.60
2023,07,01,05,51,43.90
2023,07,01,05,52,42.50
2023,07,01,05,53,43.00
2023,07,01,05,54,45.30
2023,07,01,05,55,45.00
2023,07,01,05,56,46.20
2023,07,01,05,57,45.90
2023,07,01,05,58,46.60
2023,07,01,05,59,48.20
2023,07,01,06,00,44.80
2023,07,01,06,01,45.90
2023,07,01,06,02,43.00
2023,07,01,06,03,45.00
2023,07,01,06,04,44.80
2023,07,01,06,05,43.80
2023,07,01,06,06,44.10
2023,07,01,06,07,44.80
2023,07,01,06,08,43.70
2023,07,01,06,09,45.60
2023,07,01,06,10,46.40
2023,07,01,06,11,44.30
2023,07,01,06,12,47.80
2023,07,01,06,13,46.30
2023,07,01,06,14,46.90
2023,07,01,06,15,45.80
2023,07,01,06,16,46.40
2023,07,01,06,17,45.20
2023,07,01,06,18,45.90
2023,07,01,06,19,43.70
2023,07,01,06,20,45.90
2023,07,01,06,21,44.80
2023,07,01,06,22,44.80
2023,07,01,06,23,46.70
2023,07,01,06,24,43.60
2023,07,01,06,25,48.50
2023,07,01,06,26,45.30
2023,07,01,06,27,45.40
2023,07,01,06,28,46.10
2023,07,01,06,29,44.40
2023,07,01,06,30,46.00
2023,07,01,06,31,46.70
2023,07,01,06,32,45.60
2023,07,01,06,33,48.30
2023,07,01,06,34,46.70
2023,07,01,06,35,48.10
2023,07,01,06,36,48.40
2023,07,01,06,37,45.50
2023,07,01,06,38,48.00
2023,07,01,06,39,48.20
2023,07,01,06,40,49.60
2023,07,01,06,41,50.80
2023,07,01,06,42,47.80
2023,07,01,06,43,47.70
2023,07,01,06,44,48.40
2023,07,01,06,45,44.80
2023,07,01,06,46,47.70
2023,07,01,06,47,49.50
2023,07,01,06,48,48.90
2023,07,01,06,49,47.20
2023,07,01,06,50,49.60
2023,07,01,06,51,49.00
2023,07,01,06,52,47.30
2023,07,01,06,53,50.70
2023,07,01,06,54,48.20
2023,07,01,06,55,50.10
2023,07,01,06,56,51.00
2023,07,01,06,57,49.10
2023,07,01,06,58,51.90
2023,07,01,06,59,50.30
2023,07,01,07,00,50.90
2023,07,01,07,01,51.00
2023,07,01,07,02,50.50
2023,07,01,07,03,52.00
2023,07,01,07,04,49.20
2023,07,01,07,05,49.00
2023,07,01,07,06,51.70
2023,07,01,07,07,52.30
2023,07,01,07,08,51.70
2023,07,01,07,09,50.10
2023,07,01,07,10,50.60
2023,07,01,07,11,51.00
2023,07,01,07,12,52.00
2023,07,01,07,13,53.30
2023,07,01,07,14,53.60
2023,07,01,07,15,51.20
2023,07,01,07,16,50.40
2023,07,01,07,17,52.70
2023,07,01,07,18,54.00
2023,07,01,07,19,53.20
2023,07,01,07,20,52.30
2023,07,01,07,21,49.30
2023,07,01,07,22,49.60
2023,07,01,07,23,50.50
2023,07,01,07,24,50.00
2023,07,01,07,25,49.50
2023,07,01,07,26,47.80
2023,07,01,07,27,48.20
2023,07,01,07,28,48.10
2023,07,01,07,29,46.60
2023,07,01,07,30,45.40
2023,07,01,07,31,46.50
2023,07,01,07,32,44.70
2023,07,01,07,33,45.40
2023,07,01,07,34,44.60
2023,07,01,07,35,45.00
2023,07,01,07,36,45.20
2023,07,01,07,37,43.50
2023,07,01,07,38,44.60
2023,07,01,07,39,44.30
2023,07,01,07,40,43.80
2023,07,01,07,41,41.80
2023,07,01,07,42,41.80
2023,07,01,07,43,44.70
2023,07,01,07,44,44.20
2023,07,01,07,45,44.80
2023,07,01,07,46,47.20
2023,07,01,07,47,47.40
2023,07,01,07,48,48.70
2023,07,01,07,49,47.90
2023,07,01,07,50,47.50
2023,07,01,07,51,46.70
2023,07,01,07,52,47.40
2023,07,01,07,53,43.90
2023,07,01,07,54,46.10
2023,07,01,07,55,46.20
2023,07,01,07,56,44.20
2023,07,01,07,57,42.80
2023,07,01,07,58,42.90
2023,07,01,07,59,43.90
2023,07,01,08,00,43.50
2023,07,01,08,01,42.60
2023,07,01,08,02,43.40
2023,07,01,08,03,44.30
2023,07,01,08,04,43.00
2023,07,01,08,05,43.60
2023,07,01,08,06,44.70
2023,07,01,08,07,44.40
2023,07,01,08,08,44.50
2023,07,01,08,09,43.50
2023,07,01,08,10,41.90
2023,07,01,08,11,42.10
2023,07,01,08,12,43.10
2023,07,01,08,13,42.30
2023,07,01,08,14,42.50
2023,07,01,08,15,42.50
2023,07,01,08,16,40.50
2023,07,01,08,17,42.50
2023,07,01,08,18,42.10
2023,07,01,08,19,41.30
2023,07,01,08,20,43.50
2023,07,01,08,21,41.80
2023,07,01,08,22,42.10
2023,07,01,08,23,43.70
2023,07,01,08,24,43.30
2023,07,01,08,25,41.90
2023,07,01,08,26,43.50
2023,07,01,08,27,42.50
2023,07,01,08,28,42.10
2023,07,01,08,29,41.40
2023,07,01,08,30,41.60
2023,07,01,08,31,41.60
2023,07,01,08,32,42.50
2023,07,01,08,33,40.80
2023,07,01,08,34,41.70
2023,07,01,08,35,43.00
2023,07,01,08,36,40.80
2023,07,01,08,37,42.20
2023,07,01,08,38,42.90
2023,07,01,08,39,42.80
2023,07,01,08,40,41.40
2023,07,01,08,41,41.20
2023,07,01,08,42,42.50
2023,07,01,08,43,42.60
2023,07,01,08,44,43.50
2023,07,01,08,45,43.40
2023,07,01,08,46,43.50
2023,07,01,08,47,43.40
2023,07,01,08,48,42.60
2023,07,01,08,49,41.90
2023,07,01,08,50,40.70
2023,07,01,08,51,42.20
2023,07,01,08,52,41.50
2023,07,01,08,53,40.20
2023,07,01,08,54,39.40
2023,07,01,08,55,39.80
2023,07,01,08,56,39.40
2023,07,01,08,57,40.90
2023,07,01,08,58,41.50
2023,07,01,08,59,41.60
2023,07,01,09,00,40.30
2023,07,01,09,01,39.70
2023,07,01,09,02,38.30
2023,07,01,09,03,38.90
2023,07,01,09,04,38.50
2023,07,01,09,05,39.30
2023,07,01,09,06,39.80
2023,07,01,09,07,38.50
2023,07,01,09,08,38.20
2023,07,01,09,09,37.50
2023,07,01,09,10,38.40
2023,07,01,09,11,37.90
2023,07,01,09,12,38.10
2023,07,01,09,13,38.30
2023,07,01,09,14,38.40
2023,07,01,09,15,37.90
2023,07,01,09,16,37.80
2023,07,01,09,17,38.70
2023,07,01,09,18,40.30
2023,07,01,09,19,41.20
2023,07,01,09,20,40.70
2023,07,01,09,21,41.00
2023,07,01,09,22,42.70
2023,07,01,09,23,42.10
2023,07,01,09,24,43.00
2023,07,01,09,25,42.10
2023,07,01,09,26,41.70
2023,07,01,09,27,42.00
2023,07,01,09,28,41.30
2023,07,01,09,29,43.80
2023,07,01,09,30,45.10
2023,07,01,09,31,40.20
2023,07,01,09,32,46.60
2023,07,01,09,33,33.60
2023,07,01,09,34,45.40
2023,07,01,09,35,36.80
2023,07,01,09,36,42.30
2023,07,01,09,37,37.80
2023,07,01,09,38,41.60
2023,07,01,09,39,41.70
2023,07,01,09,40,47.80
2023,07,01,09,41,38.60
2023,07,01,09,42,39.80
2023,07,01,09,43,40.70
2023,07,01,09,44,38.90
2023,07,01,09,45,38.60
2023,07,01,09,46,39.50
2023,07,01,09,47,38.00
2023,07,01,09,48,40.60
2023,07,01,09,49,38.50
2023,07,01,09,50,39.40
2023,07,01,09,51,35.80
2023,07,01,09,52,35.70
2023,07,01,09,53,41.40
2023,07,01,09,54,39.80
2023,07,01,09,55,37.10
2023,07,01,09,56,40.70
2023,07,01,09,57,40.50
2023,07,01,09,58,40.30
2023,07,01,09,59,41.30
2023,07,01,10,00,41.00
2023,07,01,10,01,39.90
2023,07,01,10,02,42.00
2023,07,01,10,03,42.40
2023,07,01,10,04,38.50
2023,07,01,10,05,40.20
2023,07,01,10,06,40.60
2023,07,01,10,07,40.90
2023,07,01,10,08,39.00
2023,07,01,10,09,43.70
2023,07,01,10,10,43.00
2023,07,01,10,11,37.20
2023,07,01,10,12,41.00
2023,07,01,10,13,42.80
2023,07,01,10,14,34.30
2023,07,01,10,15,45.20
2023,07,01,10,16,41.30
2023,07,01,10,17,34.10
2023,07,01,10,18,41.20
2023,07,01,10,19,43.00
2023,07,01,10,20,40.70
2023,07,01,10,21,40.90
2023,07,01,10,22,42.00
2023,07,01,10,23,43.00
2023,07,01,10,24,42.10
2023,07,01,10,25,39.90
2023,07,01,10,26,42.80
2023,07,01,10,27,40.20
2023,07,01,10,28,42.50
2023,07,01,10,29,41.40
2023,07,01,10,30,42.50
2023,07,01,10,31,44.30
2023,07,01,10,32,43.00
2023,07,01,10,33,39.00
2023,07,01,10,34,42.60
2023,07,01,10,35,43.30
2023,07,01,10,36,41.80
2023,07,01,10,37,41.40
2023,07,01,10,38,44.00
2023,07,01,10,39,45.10
2023,07,01,10,40,44.00
2023,07,01,10,41,43.40
2023,07,01,10,42,44.20
2023,07,01,10,43,44.70
2023,07,01,10,44,41.20
2023,07,01,10,45,43.70
2023,07,01,10,46,43.50
2023,07,01,10,47,38.50
2023,07,01,10,48,42.20
2023,07,01,10,49,44.80
2023,07,01,10,50,45.30
2023,07,01,10,51,43.80
2023,07,01,10,52,44.70
2023,07,01,10,53,44.60
2023,07,01,10,54,43.40
2023,07,01,10,55,44.00
2023,07,01,10,56,45.30
2023,07,01,10,57,41.70
2023,07,01,10,58,40.80
2023,07,01,10,59,44.90
2023,07,01,11,00,45.20
2023,07,01,11,01,43.90
2023,07,01,11,02,43.70
2023,07,01,11,03,45.10
2023,07,01,11,04,43.70
2023,07,01,11,05,45.20
2023,07,01,11,06,42.20
2023,07,01,11,07,42.30
2023,07,01,11,08,39.50
2023,07,01,11,09,43.60
2023,07,01,11,10,46.00
2023,07,01,11,11,44.50
2023,07,01,11,12,43.20
2023,07,01,11,13,45.90
2023,07,01,11,14,43.90
2023,07,01,11,15,44.40
2023,07,01,11,16,46.70
2023,07,01,11,17,45.00
2023,07,01,11,18,47.30
2023,07,01,11,19,43.50
2023,07,01,11,20,47.80
2023,07,01,11,21,46.30
2023,07,01,11,22,45.20
2023,07,01,11,23,45.90
2023,07,01,11,24,45.10
2023,07,01,11,25,44.10
2023,07,01,11,26,46.70
2023,07,01,11,27,44.80
2023,07,01,11,28,42.00
2023,07,01,11,29,40.90
2023,07,01,11,30,44.80
2023,07,01,11,31,46.10
2023,07,01,11,32,44.50
2023,07,01,11,33,46.20
2023,07,01,11,34,46.90
2023,07,01,11,35,45.60
2023,07,01,11,36,38.20
2023,07,01,11,37,42.00
2023,07,01,11,38,43.30
2023,07,01,11,39,41.90
2023,07,01,11,40,42.10
2023,07,01,11,41,42.10
2023,07,01,11,42,44.70
2023,07,01,11,43,43.00
2023,07,01,11,44,43.80
2023,07,01,11,45,41.70
2023,07,01,11,46,44.10
2023,07,01,11,47,43.80
2023,07,01,11,48,42.50
2023,07,01,11,49,38.50
2023,07,01,11,50,39.30
2023,07,01,11,51,40.90
2023,07,01,11,52,36.70
2023,07,01,11,53,37.80
2023,07,01,11,54,40.60
2023,07,01,11,55,39.60
2023,07,01,11,56,41.00
2023,07,01,11,57,43.00
2023,07,01,11,58,42.90
2023,07,01,11,59,40.90
2023,07,01,12,00,42.90
2023,07,01,12,01,41.50
2023,07,01,12,02,42.20
2023,07,01,12,03,43.10
2023,07,01,12,04,40.50
2023,07,01,12,05,40.20
2023,07,01,12,06,40.20
2023,07,01,12,07,40.20
2023,07,01,12,08,40.20
2023,07,01,12,09,42.70
2023,07,01,12,10,44.60
2023,07,01,12,11,45.70
2023,07,01,12,12,46.20
2023,07,01,12,13,48.00
2023,07,01,12,14,51.80
2023,07,01,12,15,47.60
2023,07,01,12,16,45.90
2023,07,01,12,17,41.00
2023,07,01,12,18,43.20
2023,07,01,12,19,48.40
2023,07,01,12,20,41.60
2023,07,01,12,21,39.20
2023,07,01,12,22,43.10
2023,07,01,12,23,46.20
2023,07,01,12,24,49.30
2023,07,01,12,25,41.80
2023,07,01,12,26,45.70
2023,07,01,12,27,44.10
2023,07,01,12,28,41.70
2023,07,01,12,29,42.90
2023,07,01,12,30,42.30
2023,07,01,12,31,43.80
2023,07,01,12,32,49.10
2023,07,01,12,33,46.20
2023,07,01,12,34,44.90
2023,07,01,12,35,45.10
2023,07,01,12,36,44.30
2023,07,01,12,37,42.00
2023,07,01,12,38,41.70
2023,07,01,12,39,38.00
2023,07,01,12,40,36.60
2023,07,01,12,41,35.80
2023,07,01,12,42,36.10
2023,07,01,12,43,36.10
2023,07,01,12,44,35.00
2023,07,01,12,45,36.10
2023,07,01,12,46,34.30
2023,07,01,12,47,33.60
2023,07,01,12,48,35.70
2023,07,01,12,49,36.00
2023,07,01,12,50,41.30
2023,07,01,12,51,43.90
2023,07,01,12,52,47.50
2023,07,01,12,53,50.10
2023,07,01,12,54,51.20
2023,07,01,12,55,50.10
2023,07,01,12,56,50.60
2023,07,01,12,57,51.70
2023,07,01,12,58,56.30
2023,07,01,12,59,56.30
2023,07,01,13,00,56.30
2023,07,01,13,01,56.30
2023,07,01,13,02,56.30
2023,07,01,13,03,55.50
2023,07,01,13,04,55.60
2023,07,01,13,05,57.00
2023,07,01,13,06,58.40
2023,07,01,13,07,58.70
2023,07,01,13,08,56.40
2023,07,01,13,09,54.70
2023,07,01,13,10,53.60
2023,07,01,13,11,54.70
2023,07,01,13,12,54.40
2023,07,01,13,13,52.30
2023,07,01,13,14,53.00
2023,07,01,13,15,54.30
2023,07,01,13,16,53.00
2023,07,01,13,17,52.20
2023,07,01,13,18,48.90
2023,07,01,13,19,50.10
2023,07,01,13,20,45.10
2023,07,01,13,21,36.50
2023,07,01,13,22,32.70
2023,07,01,13,23,30.40
2023,07,01,13,24,29.70
2023,07,01,13,25,28.20
2023,07,01,13,26,23.50
2023,07,01,13,27,23.30
2023,07,01,13,28,23.10
2023,07,01,13,29,21.20
2023,07,01,13,30,19.10
2023,07,01,13,31,16.80
2023,07,01,13,32,19.40
2023,07,01,13,33,23.30
2023,07,01,13,34,29.20
2023,07,01,13,35,39.40
2023,07,01,13,36,40.80
2023,07,01,13,37,42.60
2023,07,01,13,38,43.50
2023,07,01,13,39,46.20
2023,07,01,13,40,47.00
2023,07,01,13,41,50.90
2023,07,01,13,42,57.50
2023,07,01,13,43,57.20
2023,07,01,13,44,54.60
2023,07,01,13,45,58.60
2023,07,01,13,46,60.80
2023,07,01,13,47,62.00
2023,07,01,13,48,56.80
2023,07,01,13,49,58.20
2023,07,01,13,50,58.30
2023,07,01,13,51,60.80
2023,07,01,13,52,61.00
2023,07,01,13,53,61.60
2023,07,01,13,54,65.70
2023,07,01,13,55,69.80
2023,07,01,13,56,68.20
2023,07,01,13,57,67.80
2023,07,01,13,58,69.20
2023,07,01,13,59,68.10
2023,07,01,14,00,68.20
2023,07,01,14,01,68.80
2023,07,01,14,02,67.80
2023,07,01,14,03,67.60
2023,07,01,14,04,69.10
2023,07,01,14,05,68.20
2023,07,01,14,06,68.20
2023,07,01,14,07,68.50
2023,07,01,14,08,65.00
2023,07,01,14,09,66.10
2023,07,01,14,10,64.00
2023,07,01,14,11,63.20
2023,07,01,14,12,63.60
2023,07,01,14,13,63.10
2023,07,01,14,14,64.10
2023,07,01,14,15,63.20
2023,07,01,14,16,65.60
2023,07,01,14,17,65.70
2023,07,01,14,18,65.00
2023,07,01,14,19,65.90
2023,07,01,14,20,67.00
2023,07,01,14,21,67.70
2023,07,01,14,22,66.00
2023,07,01,14,23,64.80
2023,07,01,14,24,62.50
2023,07,01,14,25,61.30
2023,07,01,14,26,61.10
2023,07,01,14,27,64.90
2023,07,01,14,28,64.90
2023,07,01,14,29,63.00
2023,07,01,14,30,62.40
2023,07,01,14,31,64.00
2023,07,01,14,32,64.60
2023,07,01,14,33,64.00
2023,07,01,14,34,63.80
2023,07,01,14,35,63.60
2023,07,01,14,36,64.00
2023,07,01,14,37,61.50
2023,07,01,14,38,60.40
2023,07,01,14,39,57.90
2023,07,01,14,40,58.30
2023,07,01,14,41,59.50
2023,07,01,14,42,58.20
2023,07,01,14,43,56.70
2023,07,01,14,44,55.60
2023,07,01,14,45,55.00
2023,07,01,14,46,55.00
2023,07,01,14,47,52.60
2023,07,01,14,48,52.20
2023,07,01,14,49,52.50
2023,07,01,14,50,53.40
2023,07,01,14,51,51.30
2023,07,01,14,52,50.70
2023,07,01,14,53,51.30
2023,07,01,14,54,51.70
2023,07,01,14,55,51.70
2023,07,01,14,56,54.30
2023,07,01,14,57,53.60
2023,07,01,14,58,55.50
2023,07,01,14,59,56.70
2023,07,01,15,00,55.30
2023,07,01,15,01,53.90
2023,07,01,15,02,55.40
2023,07,01,15,03,54.90
2023,07,01,15,04,54.00
2023,07,01,15,05,56.20
2023,07,01,15,06,56.60
2023,07,01,15,07,56.60
2023,07,01,15,08,53.50
2023,07,01,15,09,57.00
2023,07,01,15,10,57.20
2023,07,01,15,11,57.20
2023,07,01,15,12,57.70
2023,07,01,15,13,57.10
2023,07,01,15,14,56.50
2023,07,01,15,15,57.30
2023,07,01,15,16,58.10
2023,07,01,15,17,62.90
2023,07,01,15,18,59.50
2023,07,01,15,19,59.50
2023,07,01,15,20,59.60
2023,07,01,15,21,61.30
2023,07,01,15,22,61.90
2023,07,01,15,23,62.70
2023,07,01,15,24,61.80
2023,07,01,15,25,63.30
2023,07,01,15,26,61.80
2023,07,01,15,27,61.90
2023,07,01,15,28,64.90
2023,07,01,15,29,63.40
2023,07,01,15,30,62.90
2023,07,01,15,31,63.10
2023,07,01,15,32,63.20
2023,07,01,15,33,64.30
2023,07,01,15,34,63.40
2023,07,01,15,35,62.90
2023,07,01,15,36,66.80
2023,07,01,15,37,65.00
2023,07,01,15,38,67.80
2023,07,01,15,39,68.60
2023,07,01,15,40,67.70
2023,07,01,15,41,70.80
2023,07,01,15,42,69.10
2023,07,01,15,43,67.40
2023,07,01,15,44,69.80
2023,07,01,15,45,68.00
2023,07,01,15,46,68.10
2023,07,01,15,47,66.40
2023,07,01,15,48,69.00
2023,07,01,15,49,70.30
2023,07,01,15,50,68.40
2023,07,01,15,51,68.40
2023,07,01,15,52,68.90
2023,07,01,15,53,68.20
2023,07,01,15,54,71.20
2023,07,01,15,55,69.00
2023,07,01,15,56,68.20
2023,07,01,15,57,66.90
2023,07,01,15,58,68.40
2023,07,01,15,59,68.20
2023,07,01,16,00,67.80
2023,07,01,16,01,68.10
2023,07,01,16,02,68.40
2023,07,01,16,03,65.70
2023,07,01,16,04,69.30
2023,07,01,16,05,68.90
2023,07,01,16,06,69.50
2023,07,01,16,07,68.60
2023,07,01,16,08,69.40
2023,07,01,16,09,68.80
2023,07,01,16,10,69.60
2023,07,01,16,11,71.10
2023,07,01,16,12,67.70
2023,07,01,16,13,66.30
2023,07,01,16,14,66.90
2023,07,01,16,15,66.70
2023,07,01,16,16,65.60
2023,07,01,16,17,66.30
2023,07,01,16,18,64.70
2023,07,01,16,19,62.10
2023,07,01,16,20,61.50
2023,07,01,16,21,62.20
2023,07,01,16,22,62.60
2023,07,01,16,23,63.00
2023,07,01,16,24,63.30
2023,07,01,16,25,63.80
2023,07,01,16,26,64.10
2023,07,01,16,27,65.10
2023,07,01,16,28,64.20
2023,07,01,16,29,62.50
2023,07,01,16,30,64.50
2023,07,01,16,31,64.20
2023,07,01,16,32,63.80
2023,07,01,16,33,67.60
2023,07,01,16,34,70.10
2023,07,01,16,35,63.30
2023,07,01,16,36,58.90
2023,07,01,16,37,66.00
2023,07,01,16,38,68.50
2023,07,01,16,39,70.20
2023,07,01,16,40,68.00
2023,07,01,16,41,66.50
2023,07,01,16,42,68.90
2023,07,01,16,43,65.20
2023,07,01,16,44,69.10
2023,07,01,16,45,66.80
2023,07,01,16,46,62.00
2023,07,01,16,47,59.50
2023,07,01,16,48,60.10
2023,07,01,16,49,63.70
2023,07,01,16,50,64.10
2023,07,01,16,51,66.80
2023,07,01,16,52,68.70
2023,07,01,16,53,65.50
2023,07,01,16,54,63.80
2023,07,01,16,55,67.40
2023,07,01,16,56,70.60
2023,07,01,16,57,67.60
2023,07,01,16,58,62.60
2023,07,01,16,59,66.00
2023,07,01,17,00,67.20
2023,07,01,17,01,64.40
2023,07,01,17,02,61.60
2023,07,01,17,03,66.10
2023,07,01,17,04,68.30
2023,07,01,17,05,67.90
2023,07,01,17,06,64.30
2023,07,01,17,07,58.90
2023,07,01,17,08,60.80
2023,07,01,17,09,63.20
2023,07,01,17,10,64.50
2023,07,01,17,11,62.70
2023,07,01,17,12,61.40
2023,07,01,17,13,62.80
2023,07,01,17,14,66.90
2023,07,01,17,15,66.80
2023,07,01,17,16,64.90
2023,07,01,17,17,65.80
2023,07,01,17,18,64.00
2023,07,01,17,19,60.50